This is the latest recevied weather packets stored in our database for station/object KI4MRC. If no packets are shown the sender has not sent any weather packets the latest 10 day(s).
| Time | Temp. | Humidity | Pressure | Rain* | Wind** | Luminosity | Snow |
|---|---|---|---|---|---|---|---|
| 1777815329 | 22.78° C | 96% | 1015.8 hPa | 0 mm | - | 134 W/m² | - |
| 1777815026 | 22.78° C | 96% | 1015.8 hPa | 0 mm | - | 113 W/m² | - |
| 1777814722 | 22.78° C | 96% | 1015.7 hPa | 0 mm | - | 120 W/m² | - |
| 1777814419 | 22.22° C | 96% | 1015.8 hPa | 0.51 mm | - | 120 W/m² | - |
| 1777814117 | 22.22° C | 96% | 1015.6 hPa | 0.51 mm | - | 114 W/m² | - |
| 1777813813 | 22.22° C | 95% | 1015.4 hPa | 1.78 mm | - | 52 W/m² | - |
| 1777813510 | 22.22° C | 95% | 1015.5 hPa | 3.05 mm | - | 48 W/m² | - |
| 1777813209 | 22.22° C | 95% | 1015.5 hPa | 3.05 mm | - | 34 W/m² | - |
| 1777812906 | 22.78° C | 95% | 1015.7 hPa | 1.78 mm | - | 23 W/m² | - |
| 1777812602 | 22.22° C | 95% | 1015.8 hPa | 0 mm | - | 37 W/m² | - |
| 1777812299 | 22.22° C | 95% | 1015.6 hPa | 0 mm | - | 89 W/m² | - |
| 1777811997 | 22.22° C | 95% | 1015.5 hPa | 0 mm | - | 62 W/m² | - |
| 1777811696 | 22.22° C | 95% | 1015.3 hPa | 0 mm | - | 77 W/m² | - |
| 1777811391 | 22.22° C | 96% | 1015.3 hPa | 0 mm | - | 54 W/m² | - |
| 1777811089 | 22.22° C | 96% | 1015.4 hPa | 0 mm | - | 62 W/m² | - |
| 1777810786 | 22.22° C | 96% | 1015.2 hPa | 0 mm | - | 76 W/m² | - |
| 1777810483 | 22.22° C | 96% | 1015.2 hPa | 0 mm | - | 73 W/m² | - |
| 1777810179 | 21.67° C | 96% | 1014.9 hPa | 0 mm | - | 67 W/m² | - |
| 1777809876 | 21.67° C | 96% | 1014.9 hPa | 0 mm | - | 68 W/m² | - |
| 1777809573 | 21.67° C | 96% | 1014.9 hPa | 0 mm | - | 49 W/m² | - |
| 1777809271 | 21.67° C | 96% | 1015 hPa | 0 mm | - | 37 W/m² | - |
| 1777808969 | 21.67° C | 96% | 1014.7 hPa | 0 mm | - | 33 W/m² | - |
| 1777808666 | 21.67° C | 96% | 1014.8 hPa | 0 mm | - | 17 W/m² | - |
| 1777808362 | 21.67° C | 96% | 1014.7 hPa | 0 mm | - | 22 W/m² | - |
| 1777808061 | 21.67° C | 96% | 1014.4 hPa | 0 mm | - | 22 W/m² | - |
* Rain latest hour (hover to see other rain measurements)
** Current wind speed in m/s (hover to see current wind gust speed)